FW4030 Weather Reports


Display with metric or nautical units.
time (UTC)temp
F
wind
direction
speed
MPH
gust
MPH
rain 1hr
in
rain 24hr
in
rain mn
in
humidity
%
barometer
mb
20260508082222 52 92 2.0 4.0 0.00 0.00 0.00 90 1029.5
20260508080221 51 122 0.0 1.0 0.00 0.00 0.00 92 1029.6
20260508075321 50 176 5.0 7.0 0.00 0.00 0.00 93 1029.6
20260508073321 49 161 0.0 2.0 0.00 0.00 0.00 93 1029.5
20260508073222 49 178 3.0 5.0 0.00 0.00 0.00 94 1029.5
20260508072221 48 180 2.0 3.0 0.00 0.00 0.00 94 1029.5
20260508071223 48 151 3.0 4.0 0.00 0.00 0.00 94 1029.4
20260508070320 48 172 1.0 2.0 0.00 0.00 0.00 94 1029.3
20260508065321 47 109 4.0 5.0 0.00 0.00 0.00 94 1029.2
20260508064320 47 166 2.0 3.0 0.00 0.00 0.00 94 1029.1
20260508063323 47 129 2.0 4.0 0.00 0.00 0.00 94 1028.9
20260508060321 46 148 1.0 4.0 0.00 0.00 0.00 93 1028.7
20260508060223 46 138 2.0 5.0 0.00 0.00 0.00 93 1028.7
20260508055321 46 135 1.0 3.0 0.00 0.00 0.00 93 1028.8
20260508054322 46 154 0.0 2.0 0.00 0.00 0.00 93 1028.8
20260508052321 45 135 0.0 1.0 0.00 0.00 0.00 93 1028.7
20260508051420 45 157 0.0 1.0 0.00 0.00 0.00 93 1028.6
20260508051323 45 98 0.0 2.0 0.00 0.00 0.00 93 1028.4
20260508050323 45 174 3.0 5.0 0.00 0.00 0.00 93 1028.5
20260508045420 45 180 1.0 3.0 0.00 0.00 0.00 92 1028.3
20260508044423 45 105 1.0 3.0 0.00 0.00 0.00 92 1028.3
20260508043421 45 106 2.0 4.0 0.00 0.00 0.00 92 1028.4
20260508043321 45 132 0.0 3.0 0.00 0.00 0.00 92 1028.4
20260508042419 45 90 1.0 2.0 0.00 0.00 0.00 92 1028.3
20260508041422 45 137 3.0 5.0 0.00 0.00 0.00 92 1028.3
20260508041321 45 119 3.0 4.0 0.00 0.00 0.00 92 1028.2
20260508040321 45 164 2.0 4.0 0.00 0.00 0.00 92 1028.2
20260508035321 46 180 1.0 3.0 0.00 0.00 0.00 92 1028.2
20260508035221 46 137 2.0 4.0 0.00 0.00 0.00 92 1028.2
20260508034222 46 174 2.0 4.0 0.00 0.00 0.00 92 1028.3
20260508033221 46 96 5.0 6.0 0.00 0.00 0.00 91 1028.2
20260508033121 46 126 4.0 6.0 0.00 0.00 0.00 91 1028.1
20260508033022 46 144 5.0 7.0 0.00 0.00 0.00 91 1028.2
20260508032020 46 112 3.0 6.0 0.00 0.00 0.00 91 1028.3
20260508031119 46 158 2.0 3.0 0.00 0.00 0.00 90 1028.2
20260508031022 46 180 3.0 5.0 0.00 0.00 0.00 90 1028.2
20260508025023 46 106 0.0 2.0 0.00 0.00 0.00 90 1028.2
20260508024021 46 135 0.0 2.0 0.00 0.00 0.00 89 1028.2
20260508023022 46 172 2.0 5.0 0.00 0.00 0.00 89 1028.2
20260508022022 46 164 3.0 7.0 0.00 0.00 0.00 89 1028.1
20260508021022 46 96 1.0 4.0 0.00 0.00 0.00 88 1028.3
20260508020021 47 126 2.0 4.0 0.00 0.00 0.00 88 1028.3
20260508015020 47 126 1.0 3.0 0.00 0.00 0.00 88 1028.3
20260508013920 47 180 3.0 5.0 0.00 0.00 0.00 88 1028.1
20260508012820 47 90 1.0 2.0 0.00 0.00 0.00 87 1028.3
20260508010919 48 90 0.0 3.0 0.00 0.00 0.00 86 1028.3
20260508010820 48 114 2.0 5.0 0.00 0.00 0.00 86 1028.2
20260508005919 48 152 0.0 3.0 0.00 0.00 0.00 86 1028.2
20260508004942 48 157 2.0 3.0 0.00 0.00 0.00 85 1028.3
20260508004021 48 137 1.0 4.0 0.00 0.00 0.00 85 1028.4
20260508003922 48 119 2.0 4.0 0.00 0.00 0.00 85 1028.3
20260508003019 48 101 1.0 3.0 0.00 0.00 0.00 85 1028.4
20260508002021 48 146 2.0 3.0 0.00 0.00 0.00 84 1028.4
20260508001923 48 164 1.0 3.0 0.00 0.00 0.00 84 1028.4
20260508000922 49 119 2.0 4.0 0.00 0.00 0.00 84 1028.6
20260507235921 49 147 1.0 2.0 0.00 0.00 0.00 83 1028.5
20260507234921 49 104 1.0 3.0 0.00 0.00 0.00 82 1028.6
20260507234020 49 137 2.0 3.0 0.00 0.00 0.00 82 1028.6
20260507233923 49 180 2.0 2.0 0.00 0.00 0.00 82 1028.6
20260507232921 49 142 2.0 3.0 0.00 0.00 0.00 81 1028.5
20260507232020 49 119 1.0 3.0 0.00 0.00 0.00 81 1028.5
20260507231021 50 106 1.0 3.0 0.00 0.00 0.00 80 1028.6
20260507230021 50 163 2.0 4.0 0.00 0.00 0.00 79 1028.6
20260507224021 50 137 0.0 2.0 0.00 0.00 0.00 79 1028.4
20260507223021 50 141 0.0 3.0 0.00 0.00 0.00 78 1028.5
20260507222023 51 112 0.0 3.0 0.00 0.00 0.00 77 1028.3
20260507221120 51 102 2.0 3.0 0.00 0.00 0.00 77 1028.3
20260507220220 51 94 1.0 4.0 0.00 0.00 0.00 76 1028.3
20260507214226 52 162 1.0 4.0 0.00 0.00 0.00 75 1028.2
20260507213227 52 133 2.0 5.0 0.00 0.00 0.00 74 1028.2
20260507212226 52 180 0.0 1.0 0.00 0.00 0.00 74 1028.2
20260507205226 53 157 1.0 3.0 0.00 0.00 0.00 72 1028.2
20260507204225 54 151 1.0 4.0 0.00 0.00 0.00 71 1028.1
20260507202228 54 146 0.0 2.0 0.00 0.00 0.00 71 1028.0
20260507201227 54 102 1.0 3.0 0.00 0.00 0.00 71 1027.9
20260507200226 55 130 2.0 4.0 0.00 0.00 0.00 69 1027.6
20260507194227 55 90 0.0 0.0 0.00 0.00 0.00 67 1027.6
20260507193324 55 138 2.0 6.0 0.00 0.00 0.00 67 1027.5
20260507193242 56 135 0.0 0.0 0.00 0.00 0.00 67 1027.5
20260507190326 55 90 0.0 1.0 0.00 0.00 0.00 70 1027.2
20260507184326 56 180 0.0 0.0 0.00 0.00 0.00 69 1027.1
20260507180426 57 180 1.0 1.0 0.00 0.00 0.00 64 1027.0
20260507175524 58 180 0.0 2.0 0.00 0.00 0.00 65 1027.1
20260507174527 58 180 1.0 4.0 0.00 0.00 0.00 64 1026.9
20260507173525 58 180 2.0 3.0 0.00 0.00 0.00 65 1026.9
20260507172526 58 180 3.0 4.0 0.00 0.00 0.00 63 1026.8
20260507172426 58 180 3.0 4.0 0.00 0.00 0.00 63 1026.8
20260507171425 59 180 4.0 5.0 0.00 0.00 0.00 60 1026.8
20260507170428 59 180 3.0 6.0 0.00 0.00 0.00 59 1026.7
20260507163525 59 180 5.0 6.0 0.00 0.00 0.00 57 1026.7
20260507162526 60 180 1.0 2.0 0.00 0.00 0.00 56 1026.7
20260507161525 60 180 3.0 4.0 0.00 0.00 0.00 56 1026.9
20260507160525 60 180 4.0 5.0 0.00 0.00 0.00 56 1026.7
20260507155525 61 180 4.0 5.0 0.00 0.00 0.00 56 1026.6
20260507155425 61 180 3.0 4.0 0.00 0.00 0.00 55 1026.6
20260507154425 61 180 4.0 4.0 0.00 0.00 0.00 54 1026.7
20260507153427 62 180 4.0 6.0 0.00 0.00 0.00 55 1026.5
20260507152424 62 180 2.0 5.0 0.00 0.00 0.00 51 1026.4
20260507151426 63 180 4.0 7.0 0.00 0.00 0.00 51 1026.5
20260507150425 63 180 5.0 7.0 0.00 0.00 0.00 49 1026.4
20260507145426 63 180 5.0 6.0 0.00 0.00 0.00 48 1026.3
20260507143424 65 176 2.0 4.0 0.00 0.00 0.00 46 1026.3
20260507142424 66 180 2.0 3.0 0.00 0.00 0.00 43 1026.2
20260507142324 66 180 3.0 6.0 0.00 0.00 0.00 43 1026.2
20260507141327 67 180 4.0 6.0 0.00 0.00 0.00 42 1026.2
20260507140326 69 172 4.0 6.0 0.00 0.00 0.00 43 1026.5
20260507135326 68 180 2.0 4.0 0.00 0.00 0.00 42 1026.4
20260507134325 68 180 6.0 8.0 0.00 0.00 0.00 45 1026.5
20260507132324 65 137 3.0 7.0 0.00 0.00 0.00 45 1026.7
20260507131341 66 176 2.0 4.0 0.00 0.00 0.00 45 1026.6
20260507130342 65 172 1.0 3.0 0.00 0.00 0.00 47 1026.5
20260507125424 68 180 4.0 5.0 0.00 0.00 0.00 46 1026.6
20260507123425 67 180 1.0 3.0 0.00 0.00 0.00 50 1026.5
20260507123324 67 180 0.0 2.0 0.00 0.00 0.00 51 1026.6
20260507121324 65 122 4.0 8.0 0.00 0.00 0.00 50 1026.6
20260507120325 64 178 2.0 5.0 0.00 0.00 0.00 52 1026.6
20260507115425 64 137 3.0 5.0 0.00 0.00 0.00 53 1026.8
20260507114524 63 163 2.0 5.0 0.00 0.00 0.00 57 1026.6
20260507114427 63 180 2.0 5.0 0.00 0.00 0.00 58 1026.7
20260507113426 63 122 3.0 4.0 0.00 0.00 0.00 55 1026.7
20260507112425 62 129 2.0 5.0 0.00 0.00 0.00 56 1026.7
20260507111427 61 112 3.0 6.0 0.00 0.00 0.00 58 1026.8
20260507110524 60 180 5.0 8.0 0.00 0.00 0.00 59 1026.9
20260507105525 60 180 4.0 6.0 0.00 0.00 0.00 61 1026.8
20260507104525 58 117 3.0 6.0 0.00 0.00 0.00 62 1026.8
20260507103525 58 180 4.0 8.0 0.00 0.00 0.00 63 1026.8
20260507102426 58 180 2.0 6.0 0.00 0.00 0.00 63 1026.8
20260507101524 59 104 3.0 6.0 0.00 0.00 0.00 61 1026.8
20260507100526 59 178 4.0 8.0 0.00 0.00 0.00 60 1026.7
20260507094625 61 122 3.0 4.0 0.00 0.00 0.00 60 1026.6
20260507093724 60 176 2.0 5.0 0.00 0.00 0.00 59 1026.4
20260507092726 62 169 2.0 4.0 0.00 0.00 0.00 58 1026.6
20260507090725 62 180 3.0 5.0 0.00 0.00 0.00 62 1026.3
20260507090626 62 180 3.0 6.0 0.00 0.00 0.00 62 1026.4
20260507090527 62 180 2.0 4.0 0.00 0.00 0.00 62 1026.4
20260507084524 63 153 2.0 5.0 0.00 0.00 0.00 65 1026.3